Regional Weather Roundup
Issued by NWS Columbia, SC

Current Version | Previous Version | Text Only | Print | Product List | Glossary On
Versions: 1 2 3 4 5 6 7 8 9 10 11 12 13 14 15 16 17 18 19 20 21 22 23 24 25 26 27 28 29 30 31 32 33 34 35 36 37 38 39 40 41 42 43 44 45 46 47 48 49 50
000
ASUS42 KCAE 301810
RWRCAE
REGIONAL WEATHER ROUNDUP
NATIONAL WEATHER SERVICE COLUMBIA SC
200 PM EDT THU MAR 30 2017

NOTE: "FAIR" INDICATES FEW OR NO CLOUDS BELOW 12,000 FEET WITH NO
SIGNIFICANT WEATHER AND/OR OBSTRUCTIONS TO VISIBILITY.

NOT ALL STATIONS ARE QUALITY CONTROLLED BY THE NATIONAL
WEATHER SERVICE. USE DATA WITH CAUTION...ESPECIALLY
DEWPOINT OBSERVATIONS.

SCZ001>056-GAZ040-063>065-077-301900-
...UPSTATE SOUTH CAROLINA...

CITY           SKY/WX    TMP DP  RH WIND       PRES   REMARKS
ANDERSON       PTSUNNY   70  63  78 VRB6      29.98F
6HR MIN TEMP:  64; 6HR MAX TEMP:  70; 6HR PCP:  0.01;

LIBERTY        CLOUDY    63  60  90 E5        30.00F
6HR MIN TEMP:  60; 6HR MAX TEMP:  63;

SPARTANBURG    DRIZZLE   61  59  94 SE3       30.01F
CLEMSON        CLOUDY    68  60  75 NE5       30.00F
6HR MIN TEMP:  63; 6HR MAX TEMP:  69; 6HR PCP:  0.05;

GREENVILLE     LGT RAIN  64  61  90 E5        30.02F FOG
6HR MIN TEMP:  62; 6HR MAX TEMP:  64; 6HR PCP:  0.20;

GREENWOOD      CLOUDY    72  62  71 SE10      30.00F
6HR MIN TEMP:  63; 6HR MAX TEMP:  72; 6HR PCP:  0.02;

GREER          LGT RAIN  62  60  93 VRB3      30.00F FOG
6HR MIN TEMP:  61; 6HR MAX TEMP:  63; 6HR PCP:  0.14;

ROCK HILL      CLOUDY    66  57  72 VRB5      30.03F
6HR MIN TEMP:  59; 6HR MAX TEMP:  66;

CHESTER        CLOUDY    66  55  68 SE6       30.03F
LAURENS        DRIZZLE   64  63  94 E7        30.00F


...CENTRAL SOUTH CAROLINA...

CITY           SKY/WX    TMP DP  RH WIND       PRES   REMARKS
COLUMBIA APT   PTSUNNY   80  61  52 SE12      29.95F
6HR MIN TEMP:  65; 6HR MAX TEMP:  81;

COLUMBIA OWENS MOSUNNY   79  60  52 SE10G17   29.98F
6HR MIN TEMP:  65; 6HR MAX TEMP:  80;

MCENTIRE ANGB  PTSUNNY   79  63  57 SE12G17   29.98F
6HR MIN TEMP:  62; 6HR MAX TEMP:  80;

ORANGEBURG     PTSUNNY   80  61  52 SE7       29.97F
6HR MIN TEMP:  63; 6HR MAX TEMP:  81;

SUMTER SHAW    PTSUNNY   78  61  56 SE13G20   29.98F
6HR MIN TEMP:  59; 6HR MAX TEMP:  80;

NEWBERRY       LGT RAIN  70  64  83 CALM      30.02F
AIKEN          FAIR      73  64  73 SW13      30.01F
BARNWELL       CLOUDY    73  70  88 CALM      29.98F
MANNING        MOCLDY    77  61  57 S8G17     30.01F
CAMDEN         CLOUDY    75  61  60 SE9       30.01F
LANCASTER      MOCLDY    70  59  68 E9        30.02F
WINNSBORO      PTCLDY    77  61  57 SE12      29.99F


...EASTERN AND COASTAL SOUTH CAROLINA...

CITY           SKY/WX    TMP DP  RH WIND       PRES   REMARKS
N MYRTLE BCH   MOSUNNY   71  56  58 E16G22    30.08F
6HR MIN TEMP:  58; 6HR MAX TEMP:  72;

CONWAY         MOCLDY    72  55  56 SE10G17   30.07F
MARION         MOCLDY    73  55  53 SE9       30.05F
HARTSVILLE     MOCLDY    77  57  50 SE10G17   30.02F
FLORENCE       CLOUDY    74  58  57 E13       30.03F
6HR MIN TEMP:  56; 6HR MAX TEMP:  77;

DARLINGTON     MOSUNNY   74  58  57 SE10      30.04F
6HR MIN TEMP:  57; 6HR MAX TEMP:  76;

CHARLESTON APT PTSUNNY   73  67  81 E15G23    30.03F
6HR MIN TEMP:  67; 6HR MAX TEMP:  76; 6HR PCP:  0.04;

MOUNT PLEASANT MOCLDY    66  66 100 CALM      30.05F FOG
WALTERBORO     MOCLDY    77  64  65 SE13G20   30.00F
BEAUFORT       PTSUNNY   76  69  79 E13       29.99F
6HR MIN TEMP:  68; 6HR MAX TEMP:  81;



...EASTERN GEORGIA...

CITY           SKY/WX    TMP DP  RH WIND       PRES   REMARKS
AUGUSTA BUSH F CLOUDY    77  66  68 S13       29.96F
6HR MIN TEMP:  65; 6HR MAX TEMP:  77; 6HR PCP:  0.05;

AUGUSTA DANIEL CLOUDY    76  62  62 S8        29.98F
6HR MIN TEMP:  68; 6HR MAX TEMP:  76; 6HR PCP: TRACE;

THOMSON        MOSUNNY   78  62  58 SW9       30.00F
6HR MIN TEMP:  65; 6HR MAX TEMP:  80;

WASHINGTON     FAIR      81  63  54 SW3       29.96F
CLAXTON        FAIR     N/A N/A N/A NE3       29.99F
SYLVANIA       LGT RAIN N/A N/A N/A SW6       30.01F
STATESBORO     LGT RAIN  67  67 100 CALM      30.00F
6HR MIN TEMP:  67; 6HR MAX TEMP:  75;

SAVANNAH       CLOUDY    76  61  59 W10       30.00F
6HR MIN TEMP:  68; 6HR MAX TEMP:  83;



...SOUTHERN NORTH CAROLINA...

CITY           SKY/WX    TMP DP  RH WIND       PRES   REMARKS
CHARLOTTE      CLOUDY    65  54  67 SE10      30.04F
6HR MIN TEMP:  59; 6HR MAX TEMP:  65;

MONROE         CLOUDY    66  54  65 CALM      30.03F
6HR MIN TEMP:  56; 6HR MAX TEMP:  67;

WADESBORO      MOCLDY    68  52  55 E8        30.04F
ROCKINGHAM     PTCLDY    69  53  57 E9G18     30.05F
RUTHERFORDTON  LGT RAIN  59  59 100 CALM      30.04F
ASHEVILLE      CLOUDY    58  55  90 S6        30.04S
6HR MIN TEMP:  56; 6HR MAX TEMP:  59; 6HR PCP:  0.05;


$$



USA.gov is the U.S. government's official web portal to all federal, state and local government web resources and services.